Location: Follega
(52.8850°N, 5.7362°E)
Time: 11:23:57
(UTC+00:00)

Cosmos 1953 - Pass Details

Date: 01 June 2020
Orbit: 539 x 558 km, 82.5° (Epoch: 10 July)

Event Time Altitude Azimuth Distance (km) Brightness Sun altitude
Rises 22:02:14 0° 352° (N) 2,728 7.6 -12.2°
Reaches altitude 10° 22:04:28 10° 358° (N) 1,827 6.2 -12.4°
Maximum altitude 22:08:23 50° 75° (ENE) 696 2.8 -12.6°
Enters shadow 22:10:57 20° 145° (SE) 1,307 3.6 -12.7°
